Anaktuvuk Pass, AK

1:25 PM AKDT on May 21, 2018 (GMT -0800)
Anaktuvuk Pass

Weather History for PAKP - March, 2014

Change the Weather History Date:

Sunday, March 9, 2014

  Actual Average Record
Temperature  
Mean Temperature -26 °F -  
Max Temperature -20 °F 0 °F 17 °F (2013)
Min Temperature -32 °F -11 °F -38 °F (2007)
Degree Days  
Heating Degree Days 91    
Moisture  
Dew Point -    
Average Humidity    
Maximum Humidity    
Minimum Humidity    
Precipitation  
Precipitation 0.00 in - - ()
Sea Level Pressure  
Sea Level Pressure 29.60 in    
Wind  
Wind Speed 11 mph (NNE)    
Max Wind Speed 15 mph    
Max Gust Speed 16 mph    
Visibility 7 miles    
Events      
Averages and records for this station are not official NWS values.
T = Trace of Precipitation, MM = Missing Value Source: NWS Daily Summary

Daily Weather History Graph

Daily Weather History Graph

Search for Another Location

Airport or City:

Astronomy

Mar. 09, 2014 Rise Set
Actual Time 8:51 AM AKDT 7:44 PM AKDT
Civil Twilight 7:56 AM AKDT 8:40 PM AKDT
Nautical Twilight 6:50 AM AKDT 9:46 PM AKDT
Astronomical Twilight 5:38 AM AKDT 11:00 PM AKDT
Moon 11:19 AM AKDT (3/9) 6:52 AM AKDT (3/9)
Length of Visible Light 12h 44m
Length of Day
10h 52m
Waxing Gibbous, 62% of the Moon is Illuminated
Mar 9
Waxing Gibbous
Mar 16
Full
Mar 23
Last Quarter
Mar 30
New
Apr 7
First Quarter

Hourly Weather History & Observations

Time (AKDT) Temp. Windchill Dew Point Humidity Pressure Visibility Wind Dir Wind Speed Gust Speed Precip Events Conditions
12:16 AM -23.8 °F -46.9 °F - N/A% 29.64 in 2.5 mi NE 11.5 mph - N/A   Overcast
12:36 AM -23.8 °F -48.0 °F - N/A% 29.64 in 2.5 mi NE 12.7 mph - N/A   Overcast
12:56 AM -23.8 °F -46.9 °F - N/A% 29.64 in 2.0 mi NE 11.5 mph - N/A   Overcast
1:16 AM -23.8 °F -48.9 °F - N/A% 29.64 in 2.0 mi NE 13.8 mph - N/A   Overcast
1:36 AM -23.8 °F -48.9 °F - N/A% 29.64 in 2.5 mi NE 13.8 mph - N/A   Overcast
1:56 AM -23.8 °F -48.0 °F - N/A% 29.63 in 2.0 mi ENE 12.7 mph - N/A   Overcast
3:16 AM -23.8 °F -49.8 °F - N/A% 29.63 in 1.8 mi NE 15.0 mph - N/A   Overcast
4:36 AM -25.6 °F -46.8 °F - N/A% 29.62 in 3.0 mi NNE 9.2 mph - N/A   Overcast
4:56 AM -25.6 °F -49.2 °F - N/A% 29.62 in 5.0 mi NNE 11.5 mph - N/A   Overcast
5:16 AM -25.6 °F -49.2 °F - N/A% 29.62 in 4.0 mi NNE 11.5 mph - N/A   Overcast
5:36 AM -23.8 °F -46.9 °F - N/A% 29.61 in 3.0 mi NE 11.5 mph - N/A   Overcast
5:56 AM -23.8 °F -46.9 °F - N/A% 29.61 in 5.0 mi NE 11.5 mph - N/A   Overcast
6:16 AM -23.8 °F -48.0 °F - N/A% 29.61 in 4.0 mi NE 12.7 mph - N/A   Overcast
6:36 AM -23.8 °F -48.0 °F - N/A% 29.61 in 3.0 mi NNE 12.7 mph - N/A   Overcast
6:56 AM -25.6 °F -50.2 °F - N/A% 29.61 in 3.0 mi NNE 12.7 mph - N/A   Overcast
7:16 AM -25.6 °F -48.0 °F - N/A% 29.61 in 4.0 mi NNE 10.4 mph - N/A   Overcast
7:36 AM -25.6 °F -48.0 °F - N/A% 29.60 in 4.0 mi NNE 10.4 mph - N/A   Overcast
7:56 AM -23.8 °F -46.9 °F - N/A% 29.60 in 3.0 mi NE 11.5 mph - N/A   Overcast
8:16 AM -25.6 °F -49.2 °F - N/A% 29.60 in 7.0 mi NE 11.5 mph - N/A   Overcast
8:36 AM -23.8 °F -46.9 °F - N/A% 29.60 in 5.0 mi NNE 11.5 mph - N/A   Overcast
8:56 AM -23.8 °F -48.0 °F - N/A% 29.61 in 4.0 mi NE 12.7 mph - N/A   Overcast
9:16 AM -23.8 °F -45.8 °F - N/A% 29.60 in 7.0 mi NE 10.4 mph - N/A   Overcast
9:36 AM -23.8 °F -48.9 °F - N/A% 29.60 in 5.0 mi NE 13.8 mph - N/A   Overcast
9:56 AM -23.8 °F -46.9 °F - N/A% 29.60 in 5.0 mi North 11.5 mph - N/A   Overcast
10:16 AM -25.6 °F -49.2 °F - N/A% 29.59 in 2.5 mi NNE 11.5 mph - N/A   Overcast
10:36 AM -25.6 °F -50.2 °F - N/A% 29.59 in 4.0 mi NNE 12.7 mph - N/A   Mostly Cloudy
10:56 AM -25.6 °F -50.2 °F - N/A% 29.60 in 8.0 mi NNE 12.7 mph - N/A   Mostly Cloudy
11:16 AM -25.6 °F -49.2 °F - N/A% 29.60 in 9.0 mi NNE 11.5 mph - N/A   Mostly Cloudy
11:36 AM -25.6 °F -50.2 °F - N/A% 29.59 in 9.0 mi NNE 12.7 mph - N/A   Overcast
11:56 AM -23.8 °F -48.0 °F - N/A% 29.59 in 6.0 mi NNE 12.7 mph - N/A   Overcast
12:16 PM -23.8 °F -48.0 °F - N/A% 29.59 in 5.0 mi North 12.7 mph - N/A   Overcast
12:36 PM -23.8 °F -45.8 °F - N/A% 29.59 in 5.0 mi NNE 10.4 mph - N/A   Mostly Cloudy
12:56 PM -23.8 °F -46.9 °F - N/A% 29.59 in 7.0 mi NNE 11.5 mph - N/A   Clear
1:16 PM -23.8 °F -48.0 °F - N/A% 29.59 in 8.0 mi NNE 12.7 mph - N/A   Clear
1:36 PM -23.8 °F -45.8 °F - N/A% 29.59 in 9.0 mi NNE 10.4 mph - N/A   Clear
1:56 PM -23.8 °F -46.9 °F - N/A% 29.59 in 9.0 mi NNE 11.5 mph - N/A   Clear
2:16 PM -22.0 °F -44.7 °F - N/A% 29.59 in 8.0 mi NNE 11.5 mph - N/A   Clear
2:36 PM -22.0 °F -44.7 °F - N/A% 29.59 in 8.0 mi NNE 11.5 mph - N/A   Clear
2:56 PM -22.0 °F -44.7 °F - N/A% 29.59 in 7.0 mi North 11.5 mph - N/A   Clear
3:16 PM -22.0 °F -42.3 °F - N/A% 29.59 in 8.0 mi North 9.2 mph - N/A   Clear
3:36 PM -22.0 °F -44.7 °F - N/A% 29.59 in 5.0 mi North 11.5 mph - N/A   Clear
3:56 PM -22.0 °F -44.7 °F - N/A% 29.59 in 9.0 mi NNE 11.5 mph - N/A   Clear
4:16 PM -20.2 °F -43.4 °F - N/A% 29.59 in 10.0 mi NNE 12.7 mph - N/A   Clear
4:36 PM -20.2 °F -43.4 °F - N/A% 29.58 in 8.0 mi NE 12.7 mph 16.1 mph N/A   Clear
4:56 PM -20.2 °F -41.3 °F - N/A% 29.59 in 10.0 mi NE 10.4 mph - N/A   Clear
5:16 PM -20.2 °F -43.4 °F - N/A% 29.59 in 9.0 mi NE 12.7 mph - N/A   Clear
5:36 PM -20.2 °F -38.8 °F - N/A% 29.59 in 7.0 mi North 8.1 mph - N/A   Clear
5:56 PM -22.0 °F -42.3 °F - N/A% 29.59 in 9.0 mi North 9.2 mph - N/A   Clear
6:16 PM -22.0 °F -43.6 °F - N/A% 29.59 in 9.0 mi North 10.4 mph - N/A   Clear
6:36 PM -23.8 °F -44.5 °F - N/A% 29.58 in 10.0 mi North 9.2 mph - N/A   Clear
6:56 PM -23.8 °F -44.5 °F - N/A% 29.59 in 9.0 mi NNE 9.2 mph - N/A   Clear
7:16 PM -25.6 °F -45.4 °F - N/A% 29.58 in 10.0 mi North 8.1 mph - N/A   Clear
7:36 PM -25.6 °F -46.8 °F - N/A% 29.58 in 10.0 mi NNE 9.2 mph - N/A   Clear
7:56 PM -25.6 °F -45.4 °F - N/A% 29.58 in 10.0 mi North 8.1 mph - N/A   Clear
8:16 PM -25.6 °F -43.8 °F - N/A% 29.58 in 10.0 mi North 6.9 mph - N/A   Clear
8:36 PM -25.6 °F -45.4 °F - N/A% 29.58 in 8.0 mi North 8.1 mph - N/A   Clear
8:56 PM -25.6 °F -45.4 °F - N/A% 29.58 in 10.0 mi North 8.1 mph - N/A   Clear
9:16 PM -25.6 °F -43.8 °F - N/A% 29.58 in 9.0 mi North 6.9 mph - N/A   Clear
9:36 PM -27.4 °F -44.1 °F - N/A% 29.58 in 10.0 mi North 5.8 mph - N/A   Clear
9:56 PM -29.2 °F - - N/A% 29.58 in 10.0 mi Calm Calm - N/A   Clear
10:16 PM -29.2 °F - - N/A% 29.58 in 9.0 mi Calm Calm - N/A   Clear
10:36 PM -29.2 °F -41.2 °F - N/A% 29.57 in 10.0 mi NNE 3.5 mph - N/A   Clear
10:56 PM -31.0 °F - - N/A% 29.57 in 9.0 mi Calm Calm - N/A   Clear
11:16 PM -31.0 °F -43.3 °F - N/A% 29.57 in 10.0 mi North 3.5 mph - N/A   Clear
11:36 PM -29.2 °F -41.2 °F - N/A% 29.57 in 10.0 mi North 3.5 mph - N/A   Clear
11:56 PM -29.2 °F -44.0 °F - N/A% 29.57 in 10.0 mi North 4.6 mph - N/A   Clear
12:16 AM -31.0 °F -43.3 °F - N/A% 29.57 in 9.0 mi North 3.5 mph - N/A   Clear
12:36 AM -32.8 °F -45.3 °F - N/A% 29.57 in 10.0 mi North 3.5 mph - N/A   Clear
12:56 AM -29.2 °F -44.0 °F - N/A% 29.56 in 10.0 mi North 4.6 mph - N/A   Clear